Location: 10198 Water Well
(34.6562°N, 106.1486°W)
Time: 00:19:43
(UTC+00:00)

Daily predictions for brighter satellites

Satellite Brightness Start Highest point End
(mag) Time Altitude Azimuth Time Altitude Azimuth Time Altitude Azimuth
OAO 3 Rocket 3.3 02:30:13 10° W 02:35:07 85° N 02:40:05 10° E
Cosmos 44 3.0 02:31:22 10° NNW 02:35:41 72° ENE 02:40:02 10° SE
CENTAUR R/B 3.4 02:27:46 10° NNW 02:36:22 85° ENE 02:45:28 10° SSE
Tsikada Rocket 4.0 02:35:43 10° N 02:42:00 74° E 02:48:10 10° SSE
Cosmos 2219 4.3 02:37:14 10° N 02:42:02 28° ENE 02:46:48 10° ESE
Resurs 01 Rocket 3.4 02:40:06 10° ESE 02:42:56 17° ENE 02:45:46 10° NNE
Timation 1 Rocket 4.4 02:40:08 10° NNW 02:46:11 86° WSW 02:52:10 10° SSE
IGS 5A 3.9 02:45:01 10° SE 02:48:56 43° ENE 02:52:53 10° N
IRS-1C Rocket 4.1 02:43:58 10° SSE 02:49:13 85° ENE 02:54:30 10° NNW
BREEZE M DEB (TANK) 4.5 02:46:23 10° W 02:49:27 37° NNW 02:57:44 10° NE
Cosmos 1544 2.9 02:47:14 10° N 02:50:45 73° E 02:54:14 10° SSE
USA 238 DEB 4.1 02:44:05 10° NNW 02:51:28 68° ENE 02:59:09 10° SE
USA 238 4.1 02:44:11 10° NNW 02:51:36 68° ENE 02:59:14 10° SE
SWIFT 4.5 02:50:37 10° SSW 02:51:50 11° S 02:53:03 10° SSE
Okean-O 2.7 02:50:05 10° S 02:54:29 81° WSW 02:58:56 10° NNW
USA 234 4.1 02:48:35 10° SSE 02:54:47 45° SW 03:01:02 10° NW
Meteor 2-6 Rocket 4.4 02:53:04 10° SSW 02:58:26 74° W 03:03:54 10° N
Cosmos 2233 Rocket 4.4 02:53:52 10° SSW 03:00:09 70° W 03:06:28 10° N
CSL-04 Rocket 3.7 02:55:29 10° S 03:00:46 81° WSW 03:06:09 10° NNW
Aureole 1 Rocket 2.4 02:58:57 10° S 03:02:23 52° ESE 03:05:22 10° NNE
Cosmos 2344 3.5 02:54:56 10° SSW 03:02:49 64° ESE 03:10:05 10° NE
Cosmos 1536 4.0 03:03:19 10° NNE 03:06:43 26° ENE 03:08:52 17° ESE
RESURS DK-1 3.6 03:04:51 13° SSE 03:07:27 22° ESE 03:10:38 10° NE
Cosmos 1184 Rocket 3.6 03:07:32 18° SE 03:08:59 27° E 03:11:35 10° NNE
ASTRO E2 3.1 03:05:15 10° W 03:09:01 46° S 03:11:34 18° ESE
Cosmos 2227 Rocket 2.4 03:04:15 10° NNW 03:09:49 55° ENE 03:14:17 16° SE
SL-4 R/B 3.6 03:06:36 10° NNW 03:10:37 29° NNE 03:13:57 12° E
Cosmos 1980 Rocket 2.3 03:07:01 10° S 03:12:25 51° ESE 03:17:52 10° NNE
Spot 2 4.4 03:12:08 10° S 03:16:08 58° WSW 03:20:07 10° NNW
Cosmos 1354 Rocket 4.4 03:12:31 10° S 03:17:27 43° ESE 03:22:26 10° NNE
H-2A R/B 2.0 03:14:05 10° N 03:18:11 79° WNW 03:22:18 10° SSW
ARGOS Delta rocket 4.2 03:13:12 10° NNE 03:18:35 57° E 03:23:48 10° S
Cosmos 1328 Rocket 4.0 03:14:55 10° SSW 03:19:09 63° W 03:23:27 10° N
Cosmos 1570 Rocket 4.4 03:15:47 10° NNW 03:20:57 64° WSW 03:26:09 10° S
Cosmos 1486 Rocket 4.3 03:17:20 10° SSW 03:22:37 74° WNW 03:27:55 10° NNE
Cosmos 2369 3.6 03:17:09 10° SSW 03:22:45 76° ESE 03:28:24 10° NNE
IRS-1A Rocket 4.5 03:21:27 17° SE 03:25:38 56° ENE 03:31:15 10° N
MetOp-A 4.2 03:21:53 10° S 03:25:51 49° WSW 03:29:39 10° NNW
Cosmos 405 2.8 03:24:42 10° N 03:28:07 81° E 03:30:04 24° SSE
Cosmos 1464 Rocket 4.0 03:23:08 10° S 03:29:16 66° E 03:35:22 10° NNE
Cosmos 389 Rocket 3.3 03:26:16 10° NNE 03:29:30 34° ENE 03:30:25 29° ESE
CZ-4B R/B 1.2 03:27:30 10° N 03:30:40 81° WNW 03:33:29 12° SSW
Cosmos 1697 Rocket 3.7 03:25:39 10° SW 03:31:07 50° WNW 03:36:38 10° N
USA 186 4.4 03:33:17 10° WSW 03:33:50 11° W 03:34:23 10° W
Cosmos 1515 3.8 03:31:24 10° S 03:35:09 74° W 03:38:55 10° N
MOS 1 4.2 03:31:08 18° SSE 03:35:27 77° ENE 03:41:07 10° N
Meteor 2-19 Rocket 4.5 03:33:02 10° N 03:39:13 83° W 03:44:40 13° S
Helios 1A Rocket 4.4 03:43:33 20° E 03:44:03 20° ENE 03:47:01 10° NNE
Cosmos 1340 3.1 03:40:56 10° SSW 03:44:36 60° W 03:48:18 10° N
Cosmos 2297 Rocket 3.1 03:41:08 10° NW 03:46:28 44° WSW 03:51:09 13° S
ATLAS 2AS CENTAUR R/B 2.9 03:40:18 10° SSW 03:48:07 85° ESE 03:55:50 10° NNE
Nadezhda 4 Rocket 4.2 03:43:34 10° N 03:49:37 52° E 03:52:29 30° SE
Cosmos 1933 Rocket 3.6 03:45:39 10° N 03:50:06 66° E 03:51:46 36° SSE
Cosmos 1503 Rocket 4.3 03:46:46 10° SSW 03:51:59 68° WNW 03:57:17 10° NNE
ERS-1 Rocket 4.3 03:52:27 22° E 03:53:35 24° ENE 03:57:32 10° NNE
SJ 16-02 1.2 03:52:33 18° SSW 03:55:42 86° ESE 04:00:05 10° NNE
SL-16 R/B 2.9 04:00:33 31° ESE 04:00:41 31° ESE 04:05:37 10° NE
CZ-2C R/B 4.5 03:56:22 10° NNE 04:00:42 34° E 04:00:43 34° E
ATLAS 5 CENTAUR R/B 3.8 03:58:02 10° WSW 04:03:46 15° SW 04:06:10 12° SSW
Cosmos 1743 3.0 04:00:18 10° NNW 04:04:02 62° W 04:05:10 40° SSW
SPOT 1/Viking Rocket 3.6 04:02:45 29° S 04:05:27 74° WSW 04:10:37 10° NNW
Cosmos 1346 Rocket 4.3 04:11:56 24° ENE 04:11:56 24° ENE 04:14:12 10° NNE
Timation 2 Rocket 4.1 04:07:45 10° NNW 04:14:24 71° ENE 04:17:03 40° SE
DASH 4.3 04:10:47 10° W 04:18:05 24° SW 04:18:48 23° SSW
ATLAS 3B R/B 4.3 04:12:30 10° N 04:18:29 25° NE 04:22:21 17° E
Meteor 1-18 Rocket 4.2 04:16:32 41° SSE 04:18:31 70° E 04:24:08 10° NNE
OAO 3 Rocket 3.2 04:13:45 10° W 04:18:39 68° SSW 04:19:17 60° SSE
Resurs 01 Rocket 2.9 04:16:57 22° SSW 04:19:06 36° W 04:23:09 10° NNW
EXPRESS MD2 3.6 04:14:30 10° NW 04:19:07 48° NNE 04:19:08 48° NNE
Cosmos 2278 4.0 04:15:45 10° SSW 04:21:20 66° WNW 04:27:00 10° NNE
Ariane Rocket 3.6 04:20:59 30° SSW 04:23:12 51° W 04:28:09 10° NNW
SPOT 5 3.2 04:22:34 49° ESE 04:23:29 56° ENE 04:28:32 10° N
Terra 2.7 04:23:27 34° ENE 04:23:33 34° ENE 04:27:51 10° N
Cosmos 2360 Rocket 3.9 04:27:32 18° ENE 04:27:32 18° ENE 04:29:39 10° NE
ISS -1.2 04:23:45 10° N 04:25:36 14° NNE 04:25:58 14° NE
Cosmos 1378 3.6 04:26:30 53° NNE 04:26:30 53° NNE 04:29:23 10° N
Cosmos 2219 4.4 04:21:09 10° NW 04:26:08 34° WSW 04:28:56 21° SSW
Gblst 52 Del rocket 4.4 04:20:26 10° SW 04:27:36 77° SE 04:33:47 10° NE
Meteor 2-21 4.3 04:22:51 10° N 04:29:00 89° E 04:31:02 45° S
Cosmos 921 Rocket 3.2 04:24:33 10° NNW 04:29:01 66° WSW 04:29:35 59° SW
CARTOSAT-1 3.8 04:31:39 53° SW 04:32:13 59° W 04:36:29 10° NNW
Cosmos 2082 3.9 04:27:20 10° NNW 04:32:53 63° WSW 04:34:24 46° SSW
SWAS 4.4 04:29:02 10° NNW 04:33:19 75° WSW 04:33:20 75° WSW
Cosmos 2263 Rocket 2.2 04:29:41 10° NNW 04:35:13 62° ENE 04:35:57 57° ESE
Cosmos 2228 Rocket 3.7 04:36:12 42° SW 04:37:23 56° W 04:41:53 10° N
Meteor 2-15 4.4 04:36:59 55° SE 04:37:51 62° E 04:43:49 10° NNE
Cosmos 1869 Rocket 3.6 04:35:43 10° NNW 04:40:10 71° W 04:40:20 70° WSW
Meteor 2-21 Rocket 4.3 04:36:51 10° N 04:42:58 86° E 04:44:16 58° SSE
SL-4 R/B 3.2 04:46:06 10° WNW 04:49:24 36° W 04:49:24 36° W
Cosmos 2279 Rocket 3.9 04:51:40 60° ESE 04:52:03 61° E 04:58:10 10° NNE
Cosmos 2227 Rocket 4.4 04:49:53 10° WNW 04:53:18 16° W 04:56:08 12° SW
Meteor 2-16 Rocket 4.3 04:48:32 10° N 04:54:43 89° E 04:55:38 67° S
Spot 2 Rocket 3.6 04:56:36 64° WSW 04:56:50 65° WSW 05:01:52 10° NNW
Cosmos 1707 Rocket 4.0 04:59:41 58° WNW 04:59:41 58° WNW 05:03:43 10° N
SL-24 R/B - RUBIN 2 4.5 04:55:19 10° NNW 04:58:57 42° NNE 04:58:57 42° NNE
ARIANE 5 R/B 3.2 05:01:18 54° NNE 05:01:18 54° NNE 05:04:54 10° N
Cosmos 2322 Rocket 2.0 05:04:59 83° ENE 05:04:59 83° ENE 05:10:28 10° NNE
Cosmos 2333 Rocket 3.9 05:13:10 21° ENE 05:13:10 21° ENE 05:15:28 10° NE
Cosmos 1975 4.2 05:09:10 10° NNW 05:11:59 37° NW 05:11:59 37° NW
USA 215 3.3 05:07:04 10° NE 05:12:51 59° E 05:12:51 59° E
Cosmos 1844 Rocket 4.1 05:09:57 10° N 05:14:32 26° ENE 05:14:32 26° ENE
Cosmos 44 Rocket 3.8 05:11:19 10° NNW 05:14:58 53° NNW 05:14:58 53° NNW
Cosmos 2180 Rocket 4.3 05:20:10 78° ENE 05:20:10 78° ENE 05:26:09 10° N
Cosmos 2219 Rocket 3.9 05:31:29 21° ENE 05:31:29 21° ENE 05:33:38 10° NE
ERS-1 Rocket 4.2 05:32:27 33° W 05:32:27 33° W 05:36:41 10° NNW
Cosmos 1733 Rocket 4.4 05:30:09 10° NNW 05:33:09 38° NW 05:33:09 38° NW
SL-16 R/B 3.7 05:42:19 23° W 05:44:41 31° WNW 05:49:40 10° N
Terra 4.0 06:02:20 19° WNW 06:02:20 19° WNW 06:04:48 10° NW
Cosmos 1937 Rocket 4.4 06:03:15 45° N 06:03:15 45° N 06:06:57 10° NNE
COSMOS 2428 4.2 06:05:46 28° NE 06:05:46 28° NE 06:08:36 10° NE
Cosmos 1655 Rocket 4.1 05:58:30 10° N 06:03:55 69° N 06:03:55 69° N
Cosmos 2360 Rocket 3.1 06:09:14 42° WNW 06:09:14 42° WNW 06:14:27 10° N
ATLAS 3B R/B 2.9 06:02:22 10° NW 06:09:35 71° WSW 06:09:35 71° WSW
CZ-4C R/B 4.4 06:04:43 10° N 06:11:08 29° NE 06:14:45 22° E
Cosmos 2263 Rocket 4.4 06:15:45 10° WNW 06:17:39 13° W 06:17:39 13° W
Cosmos 2278 Rocket 4.3 06:31:46 10° NNE 06:35:16 16° NE 06:36:05 16° ENE
ATLAS CENTAUR R/B 3.6 06:35:26 10° NNW 06:37:47 28° NNW 06:37:47 28° NNW
Cosmos 2333 Rocket 3.6 06:55:08 32° NW 06:55:08 32° NW 06:59:48 10° N
Cosmos 1844 Rocket 4.3 06:53:24 10° NW 06:56:11 26° WNW 06:56:11 26° WNW
ADEOS Rocket 3.5 07:00:11 51° N 07:00:11 51° N 07:04:33 10° N
Cosmos 2219 Rocket 3.7 07:13:10 29° NW 07:13:10 29° NW 07:17:30 10° N
S3M 4.3 07:22:53 63° NNE 07:22:53 63° NNE 07:28:10 10° N
CZ-2D R/B 4.4 07:24:17 10° ENE 07:26:09 14° ENE 07:26:09 14° ENE
USA 267 3.8 07:26:12 45° E 07:27:42 54° NE 07:34:02 10° NW
USA 229 DEB 4.3 07:31:08 10° NNW 07:38:35 62° ENE 07:40:07 53° E
USA 229 4.3 07:31:14 10° NNW 07:38:41 61° NE 07:40:15 52° E
NOSS 0 Rocket 4.5 07:40:53 52° NW 07:40:53 52° NW 07:46:15 10° NNE
Cosmos 2237 Rocket 2.9 07:43:57 50° N 07:43:57 50° N 07:48:13 10° NNE
COSMOS 2428 4.4 07:47:44 23° WNW 07:47:44 23° WNW 07:52:04 10° N
Resurs 1-4 Rocket 3.7 07:47:54 10° NE 07:51:19 26° ENE 07:51:19 26° ENE
CZ-4C R/B 3.1 07:52:29 10° NW 07:59:52 68° W 07:59:52 68° W
Cosmos 1943 Rocket 4.2 07:57:55 10° N 08:02:21 23° ENE 08:05:07 16° E
NOSS 3-1 (A) 4.0 07:57:24 10° NW 08:05:24 75° WSW 08:05:48 74° SW
ADEOS II 4.1 08:02:00 10° NE 08:05:23 18° E 08:05:23 18° E
Thor Agena Rocket 4.2 08:02:36 10° NNE 08:06:38 53° NNE 08:06:38 53° NNE
Cosmos 2278 Rocket 3.1 08:14:12 10° NNW 08:17:53 40° NW 08:17:53 40° NW
Lacrosse 5 2.8 08:22:52 46° N 08:22:52 46° N 08:26:50 10° NNE
NPP 4.3 08:22:47 10° NNE 08:27:35 49° E 08:27:35 49° E
SL-16 R/B 2.3 08:31:39 71° NNE 08:31:39 71° NNE 08:36:41 10° NNE
BREEZE-M DEB (TANK) 4.2 08:42:55 49° ESE 08:42:55 49° ESE 08:45:43 10° ENE
Cosmos 1269 Rocket 4.2 08:37:10 10° NNW 08:42:07 67° NE 08:42:07 67° NE
Meteor 2-10 Rocket 4.3 08:38:18 10° NNW 08:42:27 44° NW 08:42:27 44° NW
SL-16 R/B 2.9 08:46:14 41° SE 08:48:14 59° ENE 08:54:21 10° N
Cosmos 1536 Rocket 4.3 08:53:49 51° NE 08:53:49 51° NE 08:57:20 10° NNE
SME Rocket 4.5 08:56:26 32° NW 08:56:26 32° NW 08:59:05 10° NNW
Meteor 1-24 Rocket 4.0 08:56:21 54° WNW 08:56:21 54° WNW 09:01:19 10° N
Cosmos 2074 Rocket 4.0 08:50:17 10° N 08:56:36 78° E 08:57:48 60° SSE
Cosmos 292 Rocket 4.0 08:59:23 68° NE 08:59:23 68° NE 09:03:40 10° NNE
COSMOS 2455 2.7 09:01:17 76° WSW 09:01:42 81° WNW 09:07:46 10° NNE
CRYOSAT 2 4.4 09:04:32 69° E 09:04:39 69° E 09:09:31 10° N
CZ-2D R/B 2.3 09:02:22 10° N 09:07:28 55° WNW 09:07:28 55° WNW
USA 267 4.4 09:13:29 26° W 09:13:29 26° W 09:16:43 10° WNW
Lacrosse 5 rocket 3.1 09:12:11 22° NNW 09:12:11 22° NNW 09:14:58 10° NNE
Cosmos 2184 Rocket 3.8 09:06:46 10° N 09:13:00 80° W 09:14:06 62° SSW
YAOGAN 11 4.1 09:17:35 81° NE 09:17:35 81° NE 09:21:57 10° N
Cosmos 1703 3.7 09:20:57 59° NNE 09:20:57 59° NNE 09:24:14 10° N
OAO 2 Rocket 3.6 09:21:48 52° SE 09:21:48 52° SE 09:26:03 10° E
MSX 4.0 09:15:55 10° NNE 09:21:40 65° ESE 09:23:24 44° SSE
Cosmos 1943 3.4 09:23:26 49° SSE 09:24:46 64° ESE 09:30:24 10° NNE
UNK 3.7 09:27:09 69° WNW 09:27:09 69° WNW 09:31:30 10° NNW
EO 1 Del DPAF 3.9 09:24:06 10° N 09:26:39 46° N 09:26:39 46° N
Helios 1A 3.3 09:28:06 55° ESE 09:28:45 64° ENE 09:32:56 10° N
SEDSat Delta rocket 4.3 09:28:00 46° S 09:28:45 48° SSE 09:35:13 10° E
Resurs 1-4 Rocket 3.1 09:27:32 10° N 09:32:05 31° WNW 09:32:24 30° WNW
Lacrosse 4 Rocket 3.9 09:31:42 11° SE 09:33:31 14° ESE 09:35:48 10° ENE
Nadezhda 1 Rocket 4.2 09:38:22 44° WSW 09:39:51 53° W 09:46:01 10° N
Meteor 1-28 Rocket 3.4 09:40:53 60° NW 09:40:53 60° NW 09:44:04 10° NNW
NOSS 3-3 (A) 3.7 09:39:55 50° SW 09:41:22 73° WNW 09:47:31 10° NNE
NOSS 3-3 (C) 3.7 09:40:00 50° SW 09:41:27 74° WNW 09:47:36 10° NNE
Cosmos 614 Rocket 3.8 09:37:30 10° NNW 09:42:42 75° WSW 09:44:21 44° S
IDEFIX/ARIANE 42P 2.7 09:38:49 10° N 09:43:58 58° WNW 09:45:05 48° WSW
ADEOS II 2.5 09:40:24 10° N 09:45:23 45° WNW 09:46:18 41° W
Cosmos 1943 Rocket 2.5 09:40:54 10° NW 09:46:15 44° WSW 09:46:34 43° WSW
COSMOS 2441 4.3 09:42:05 10° NNE 09:46:58 89° E 09:48:20 48° SSW
MOS 1 Rocket 3.7 09:49:39 39° WNW 09:49:39 39° WNW 09:53:09 10° NNW
ALOS 4.1 09:47:46 10° NE 09:51:41 26° E 09:55:32 10° SSE
Cosmos 1892 Rocket 3.9 09:51:00 35° SSE 09:52:45 63° E 09:57:10 10° NNE
Cosmos 2297 3.9 09:48:39 10° NNW 09:54:11 50° WSW 09:55:48 39° SSW
IRS-1D 3.5 09:49:29 10° N 09:54:49 80° WNW 09:56:50 39° SSW
Cosmos 2251 Rocket 3.5 09:51:38 10° NNW 09:56:56 86° ENE 10:01:52 12° SSE
Cosmos 1726 Rocket 4.0 09:56:26 10° N 10:00:47 61° E 10:04:05 17° SSE
ATLAS 2A CENTAUR R/B 4.2 09:50:14 22° WSW 10:03:18 54° S 10:11:05 10° ESE
Lacrosse 5 4.3 10:03:58 10° NW 10:05:50 12° NNW 10:07:41 10° N
CZ-2C R/B 3.4 10:05:58 10° NNE 10:10:47 43° E 10:15:15 11° S
Cosmos 2366 rocket 4.3 10:07:23 10° N 10:13:32 69° E 10:19:42 10° SSE
Cosmos 1271 Rocket 4.1 10:10:34 10° NW 10:13:07 24° WNW 10:13:07 24° WNW
SL-16 R/B 4.4 10:14:03 10° WNW 10:15:53 11° NW 10:17:43 10° NNW
Cosmos 2369 Rocket 2.1 10:11:16 10° NNW 10:16:50 69° WSW 10:22:22 10° S
Cosmos 2341 Rocket 4.0 10:11:43 10° N 10:18:05 74° W 10:24:14 11° S
Cosmos 1656 Rocket 3.5 10:12:40 10° NNW 10:18:06 86° WSW 10:23:32 10° SSE
SL-8 Rocket 4.0 10:13:38 10° N 10:20:00 86° W 10:26:18 10° S
Cosmos 2228 3.8 10:17:59 10° NNW 10:21:51 32° W 10:22:40 30° WSW
Chunghua 1 4.3 10:25:00 33° W 10:26:21 63° SSW 10:29:51 10° ESE
Cosmos 1420 Rocket 3.9 10:24:21 21° SSW 10:27:52 89° ESE 10:33:05 10° NNE
SL-16 R/B 3.9 10:31:20 18° WSW 10:32:09 18° W 10:36:16 10° NW
SL-24 DEB 4.2 10:29:09 12° S 10:33:34 75° W 10:38:17 10° N
Cosmos 1626 Rocket 4.0 10:32:32 10° S 10:36:53 62° E 10:41:13 10° NNE
Genesis I 3.6 10:33:45 10° NNW 10:37:46 67° ENE 10:41:40 10° SE
Cosmos 1371 Rocket 4.3 10:35:37 22° SW 10:38:44 49° WNW 10:43:45 10° N
Cosmos 2058 Rocket 3.0 10:34:54 10° N 10:39:17 84° W 10:43:37 10° S
Cosmos 407 Rocket 3.4 10:34:10 10° NNW 10:39:26 69° WSW 10:44:36 10° S
GPS 2-04 Rocket1 2.3 10:39:11 22° W 10:41:16 82° N 10:44:48 10° E
Cosmos 1452 Rocket 4.3 10:41:31 10° S 10:46:35 50° ESE 10:51:40 10° NNE
Cosmos 1140 Rocket 3.6 10:41:31 10° NNW 10:46:38 54° WSW 10:51:41 10° S
SeaSat 1 2.9 10:42:41 10° NNE 10:47:34 60° ESE 10:52:24 10° SSW
Cosmos 1633 4.4 10:46:35 10° SSE 10:49:41 30° E 10:52:49 10° NNE
Helios 1B rocket 3.3 10:47:21 10° N 10:50:59 32° WNW 10:53:29 17° SW
MOS 1-B Rocket 3.9 10:47:39 10° S 10:53:10 55° W 10:58:43 10° NNW
Cosmos 1825 2.0 10:51:10 10° S 10:54:52 84° W 10:58:36 10° N
CZ-2C R/B 3.1 10:55:38 10° S 10:57:45 16° SSE 10:59:55 10° ESE
Nadezhda 3 Rocket 4.1 10:53:26 10° S 10:59:46 86° E 11:06:03 10° N
CZ-2D R/B 3.3 10:56:36 10° NNE 11:00:35 88° ESE 11:04:31 10° SSW
Cosmos 1954 Rocket 4.2 10:58:25 10° NNW 11:03:46 82° ENE 11:09:03 10° SSE
METEOR-M 4.2 10:58:25 10° NNE 11:03:48 88° WNW 11:09:08 10° SSW
Cosmos 1758 Rocket 4.2 10:59:34 10° S 11:03:52 58° E 11:08:08 10° NNE
Cosmos 2218 Rocket 4.4 10:58:34 10° NNW 11:04:26 44° W 11:10:21 10° SSW
OAO 2 Rocket 3.3 11:00:54 10° W 11:05:54 86° N 11:10:49 10° E
Cosmos 1408 4.2 11:09:12 12° WSW 11:11:27 19° WNW 11:14:07 10° NNW
Lacrosse 4 Rocket 2.1 11:07:59 12° SW 11:11:46 41° WNW 11:15:47 10° N
SEDSat Delta rocket 4.1 11:08:28 10° WSW 11:15:12 68° S 11:21:46 10° E
Cosmos 1892 4.1 11:12:43 11° SW 11:15:29 21° WNW 11:18:25 10° NNW
ARIANE 5 R/B 2.8 11:11:52 10° N 11:16:42 48° WNW 11:21:27 10° SW
Intercosmos 25 Rocket 3.8 11:14:51 10° N 11:18:39 87° W 11:24:33 10° S
Okean 1-7 Rocket 4.5 11:17:09 10° SW 11:21:03 30° WNW 11:24:58 10° NNW
Cosmos 1484 Rocket 2.8 11:17:54 10° N 11:21:47 79° WNW 11:25:43 10° SSW
Cosmos 1821 Rocket 4.1 11:16:36 10° NNW 11:22:58 70° W 11:29:16 10° S
Cosmos 1812 Rocket 3.8 11:18:40 10° N 11:23:05 76° E 11:27:31 10° S
Cosmos 1833 Rocket 4.4 11:20:09 10° SSE 11:25:05 33° ESE 11:30:03 10° NE
OAO 3 Copernicus 4.3 11:21:14 10° WSW 11:26:16 80° SSE 11:31:19 10° E
ALOS 3.5 11:25:07 10° NNW 11:28:55 25° WNW 11:32:43 10° SW
NOSS 3-4 (A) 4.5 11:22:12 10° NNW 11:29:26 69° ENE 11:37:31 10° SE
NOSS 3-4 (C) 4.5 11:22:17 10° NNW 11:29:29 68° ENE 11:37:31 10° SE
